Погода в Банжуле

Гамбия     13°27′13″N   16°34′28″W
темп.,
°C
ветер,
м/с
пор.,
м/с
влажн.,
%
обл.,
%
осадки,
мм/ч
давл.,
гПа
погр.,
м
15 мая, сб
сб1500:00+23зюз467726 0.0 1009119
03:00+23з227490 0.0 100823
06:00+23ююв227119 0.0 100915
09:00+25ююв336222 0.0 1012124
12:00+28зсз325089 0.0 1012448
15:00+27з7658100 0.0 1009229
18:00+25з7972100 0.0 1009281
21:00+23зсз5779100 0.0 1011211
16 мая, вс
вс1600:00+22зсз458132 0.0 1012197
03:00+22зюз33837 0.0 1011122
06:00+22з23835 0.0 1011118
09:00+23зсз447395 0.0 1013250
12:00+24зсз43665 0.0 1013297
15:00+24зсз77685 0.0 1010234
18:00+23зсз797881 0.0 1010231
21:00+22зсз8118498 0.0 1012255
17 мая, пн
пн1700:00+22сз81083100 0.0 1012304
03:00+22сз678399 0.0 1011260
06:00+22ссз3480100 0.0 1011167
09:00+24ссз336547 0.0 1013201
12:00+25з315723 0.0 1013382
15:00+24зсз667099 0.0 1010193
18:00+23зсз8107845 0.0 1009251
21:00+22сз81184100 0.0 1011314
18 мая, вт
вт1800:00+22сз6983100 0.0 1012299
03:00+22сз5684100 0.0 1011247
06:00+22зсз4585100 0.0 1011208
09:00+23з3278100 0.0 1014205
12:00+24з4370100 0.0 1013270
15:00+24з6673100 0.0 1012278
18:00+24зюз787374 0.0 1010276
21:00+23з588415 0.0 1012283
19 мая, ср
ср1900:00+23зсз468395 0.0 1012233
03:00+23зсз468499 0.0 1011278
06:00+22зсз34865 0.0 1012148
09:00+24зсз33774 0.0 1013211
12:00+25з43715 0.0 1013356
15:00+26з766527 0.0 1010257
18:00+25з89760 0.0 1010302
21:00+23з68850 0.0 1012275